Voltar ao catálogo

CZ-6A DEB

AtivoPO
NORAD 61333·DEBRIS·🇨🇳 China

Lançado Aug 6, 2024 de Taiyuan Satellite Launch Center

Loading…

Próximas Passagens (próximas 24 horas)

TLE

AtualizadoSource: Space-Track

Época: Sep 12, 2026, 00:04 UTC

1 61333U 24140UW  26255.00282804  .00000363  00000-0  16643-3 0  9996
2 61333  89.0066 266.0993 0048305 269.6440  89.9215 14.18750396104725

Acompanhe CZ-6A DEB em tempo real com AllMySat

Download on the App Store